Location: Boitzum
(52.1496°N, 9.6943°E)
Time: 00:23:44
(UTC+00:00)

Cosmos 2181 Rocket - Pass Details

Date: 13 January 2026
Orbit: 952 x 1013 km, 82.9° (Epoch: 18 February)

Event Time Altitude Azimuth Distance (km) Brightness Sun altitude
Rises 04:13:22 0° 350° (N) 3,707 7.0 -28.4°
Reaches altitude 10° 04:15:55 10° 354° (N) 2,763 6.3 -28.0°
Maximum altitude 04:22:14 64° 76° (ENE) 1,105 4.4 -27.1°
Drops below altitude 10° 04:28:35 10° 158° (SSE) 2,780 6.6 -26.1°
Sets 04:31:09 0° 161° (SSE) 3,731 7.3 -25.7°
